Weather History for Natchitoches, LA

Change the Weather History Date:

Wednesday, June 18, 2014

  Actual Average Record
Temperature  
Mean Temperature 82 °F -  
Max Temperature 93 °F 92 °F 104 °F (2011)
Min Temperature 71 °F 70 °F 57 °F (1960)
Cooling Degree Days 17    
Growing Degree Days 32 (Base 50)    
Moisture  
Dew Point 74 °F    
Average Humidity 83    
Maximum Humidity 100    
Minimum Humidity 51    
Precipitation  
Precipitation 0.00 in - - ()
Sea Level Pressure  
Sea Level Pressure 30.05 in    
Wind  
Wind Speed 4 mph (SSE)    
Max Wind Speed 12 mph    
Max Gust Speed -    
Visibility 8 miles    
Events Fog , Thunderstorm    
Averages and records for this station are not official NWS values.
T = Trace of Precipitation, MM = Missing Value Source: NWS Daily Summary

Daily Weather History Graph

Daily Weather History Graph

Search for Another Location

Airport:

Trip Planner

Search our weather history database for the weather conditions in past years. The results will help you decide how hot, cold, wet, or windy it might be!

Date:

Astronomy

Jun. 18, 2014 Rise Set
Actual Time 6:06 AM CDT 8:20 PM CDT
Civil Twilight 5:38 AM CDT 8:48 PM CDT
Nautical Twilight 5:04 AM CDT 9:22 PM CDT
Astronomical Twilight 4:27 AM CDT 10:00 PM CDT
Moon 12:08 AM CDT (6/18) 12:10 PM CDT (6/18)
Length of Visible Light 15h 09m
Length of Day
14h 13m
Waning Gibbous, 62% of the Moon is Illuminated
Jun 18
Waning Gibbous
Jun 19
Last Quarter
Jun 27
New
Jul 5
First Quarter
Jul 12
Full

Hourly Weather History & Observations

Time (CDT) Temp. Heat Index Dew Point Humidity Pressure Visibility Wind Dir Wind Speed Gust Speed Precip Events Conditions
12:15 AM 77.2 °F - 74.1 °F 90% 30.04 in 10.0 mi South 4.6 mph - N/A   Clear
12:35 AM 77.4 °F - 73.8 °F 89% 30.04 in 10.0 mi South 4.6 mph - N/A   Clear
1:15 AM 76.5 °F - 73.6 °F 91% 30.04 in 10.0 mi South 4.6 mph - N/A   Clear
1:35 AM 76.3 °F - 73.6 °F 91% 30.04 in 10.0 mi SSW 4.6 mph - N/A   Clear
1:55 AM 75.9 °F - 73.6 °F 92% 30.04 in 10.0 mi South 4.6 mph - N/A   Clear
2:15 AM 75.6 °F - 73.6 °F 94% 30.04 in 10.0 mi SSW 3.5 mph - N/A   Clear
2:35 AM 74.8 °F - 73.4 °F 95% 30.05 in 10.0 mi Calm Calm - N/A   Clear
2:55 AM 74.3 °F - 73.0 °F 96% 30.05 in 10.0 mi Calm Calm - N/A   Clear
3:15 AM 73.8 °F - 73.0 °F 98% 30.05 in 7.0 mi Calm Calm - N/A   Clear
3:35 AM 74.3 °F - 73.4 °F 97% 30.06 in 10.0 mi Calm Calm - N/A   Clear
3:55 AM 73.6 °F - 73.0 °F 98% 30.06 in 7.0 mi Calm Calm - N/A   Clear
4:15 AM 72.7 °F - 72.5 °F 99% 30.05 in 4.0 mi Calm Calm - N/A   Clear
4:35 AM 72.7 °F - 72.5 °F 99% 30.06 in 4.0 mi Calm Calm - N/A   Clear
4:55 AM 72.7 °F - 72.7 °F 100% 30.06 in 2.0 mi Calm Calm - N/A   Clear
5:15 AM 72.3 °F - 72.1 °F 99% 30.05 in 3.0 mi Calm Calm - N/A   Clear
5:35 AM 71.8 °F - 71.6 °F 99% 30.06 in 3.0 mi Calm Calm - N/A   Clear
5:55 AM 72.5 °F - 72.5 °F 100% 30.06 in 4.0 mi Calm Calm - N/A   Clear
6:15 AM 72.7 °F - 72.7 °F 100% 30.06 in 2.5 mi Calm Calm - N/A   Mist
6:35 AM 73.4 °F - 73.4 °F 100% 30.06 in 0.2 mi Calm Calm - N/A Fog Fog
6:55 AM 73.9 °F - 73.9 °F 100% 30.06 in 0.2 mi Calm Calm - N/A Fog Fog
7:15 AM 73.9 °F - 73.9 °F 100% 30.06 in 0.2 mi SSE 4.6 mph - N/A Fog Fog
7:35 AM 74.5 °F - 74.5 °F 100% 30.07 in 0.5 mi SSE 4.6 mph - N/A Fog Fog
7:55 AM 75.0 °F - 75.0 °F 100% 30.07 in 1.2 mi SSE 3.5 mph - N/A   Overcast
8:15 AM 75.7 °F - 75.7 °F 100% 30.08 in 3.0 mi SSE 4.6 mph - N/A   Overcast
8:35 AM 77.0 °F - 75.9 °F 96% 30.08 in 5.0 mi SSE 6.9 mph - N/A   Overcast
9:15 AM 78.4 °F - 75.7 °F 91% 30.09 in 7.0 mi SE 5.8 mph - N/A   Overcast
9:35 AM 80.6 °F 86.8 °F 76.3 °F 87% 30.09 in 10.0 mi SE 4.6 mph - N/A   Overcast
9:55 AM 82.9 °F 91.5 °F 76.6 °F 81% 30.09 in 10.0 mi SSE 6.9 mph - N/A   Mostly Cloudy
10:15 AM 83.7 °F 92.7 °F 76.5 °F 79% 30.09 in 10.0 mi SSE 5.8 mph - N/A   Overcast
10:35 AM 84.4 °F 93.5 °F 76.1 °F 76% 30.08 in 10.0 mi SSE 8.1 mph - N/A   Mostly Cloudy
10:55 AM 85.5 °F 95.0 °F 75.7 °F 73% 30.08 in 10.0 mi South 5.8 mph - N/A   Scattered Clouds
11:15 AM 85.8 °F 94.6 °F 74.8 °F 70% 30.08 in 10.0 mi SSW 5.8 mph - N/A   Scattered Clouds
11:35 AM 87.1 °F 95.9 °F 74.7 °F 66% 30.08 in 10.0 mi SSW 5.8 mph - N/A   Scattered Clouds
11:55 AM 88.7 °F 97.2 °F 73.6 °F 61% 30.08 in 10.0 mi SSW 8.1 mph - N/A   Scattered Clouds
12:15 PM 89.2 °F 97.4 °F 73.0 °F 59% 30.08 in 10.0 mi South 5.8 mph - N/A   Scattered Clouds
12:35 PM 90.0 °F 96.9 °F 72.0 °F 55% 30.07 in 10.0 mi South 10.4 mph - N/A   Scattered Clouds
1:15 PM 90.9 °F 98.3 °F 72.3 °F 54% 30.07 in 10.0 mi SSW 9.2 mph - N/A   Scattered Clouds
1:35 PM 90.9 °F 98.3 °F 72.0 °F 54% 30.06 in 10.0 mi SSW 3.5 mph - N/A   Clear
1:55 PM 91.0 °F 97.6 °F 71.2 °F 52% 30.05 in 10.0 mi SSW 8.1 mph - N/A   Scattered Clouds
2:35 PM 92.1 °F 99.9 °F 72.0 °F 52% 30.05 in 10.0 mi SSE 5.8 mph - N/A   Scattered Clouds
2:55 PM 93.0 °F 101.3 °F 72.3 °F 51% 30.05 in 10.0 mi SSW 5.8 mph - N/A Thunderstorm Clear
3:35 PM 84.9 °F 90.7 °F 72.1 °F 65% 30.04 in 10.0 mi SSE 8.1 mph - N/A   Scattered Clouds
3:55 PM 88.0 °F 95.6 °F 73.2 °F 61% 30.03 in 10.0 mi SSE 11.5 mph - N/A   Clear
4:15 PM 87.8 °F 96.6 °F 74.1 °F 64% 30.04 in 10.0 mi SE 11.5 mph - N/A   Clear
4:35 PM 88.7 °F 99.3 °F 75.7 °F 65% 30.04 in 10.0 mi SSE 6.9 mph - N/A   Clear
4:55 PM 86.0 °F 93.4 °F 73.6 °F 66% 30.03 in 10.0 mi SE 5.8 mph - N/A   Clear
5:15 PM 85.3 °F 93.0 °F 73.9 °F 69% 30.04 in 10.0 mi SSE 8.1 mph - N/A Thunderstorm Thunderstorm
5:35 PM 84.7 °F 91.4 °F 73.0 °F 68% 30.03 in 10.0 mi SSW 8.1 mph - N/A   Clear
5:55 PM 83.3 °F 89.3 °F 73.0 °F 71% 30.03 in 10.0 mi SSW 4.6 mph - N/A   Clear
6:15 PM 83.5 °F 88.2 °F 70.9 °F 66% 30.02 in 10.0 mi South 4.6 mph - N/A   Clear
6:35 PM 82.6 °F 87.8 °F 72.1 °F 71% 30.02 in 10.0 mi South 4.6 mph - N/A   Clear
6:55 PM 82.0 °F 87.4 °F 73.0 °F 74% 30.01 in 10.0 mi SSE 3.5 mph - N/A   Clear
7:15 PM 81.7 °F 87.1 °F 73.4 °F 76% 30.01 in 10.0 mi SSE 5.8 mph - N/A   Clear
7:35 PM 81.0 °F 86.3 °F 74.1 °F 80% 30.01 in 10.0 mi SE 3.5 mph - N/A   Clear
7:55 PM 80.6 °F 85.7 °F 74.1 °F 81% 30.02 in 10.0 mi ESE 3.5 mph - N/A   Clear
8:15 PM 79.9 °F - 74.3 °F 83% 30.02 in 10.0 mi SE 3.5 mph - N/A   Clear
8:35 PM 79.3 °F - 74.7 °F 86% 30.02 in 10.0 mi ESE 3.5 mph - N/A   Clear
8:55 PM 79.3 °F - 74.8 °F 86% 30.02 in 10.0 mi ESE 3.5 mph - N/A   Clear
9:15 PM 79.2 °F - 75.2 °F 88% 30.03 in 10.0 mi SE 3.5 mph - N/A   Clear
9:35 PM 78.8 °F - 75.2 °F 89% 30.03 in 10.0 mi Calm Calm - N/A   Clear
9:55 PM 78.4 °F - 75.4 °F 90% 30.03 in 10.0 mi SSE 3.5 mph - N/A   Clear
10:15 PM 77.9 °F - 75.7 °F 93% 30.03 in 10.0 mi SSE 4.6 mph - N/A   Clear
10:35 PM 77.7 °F - 75.7 °F 94% 30.03 in 10.0 mi South 4.6 mph - N/A   Clear
10:55 PM 77.7 °F - 76.1 °F 95% 30.03 in 10.0 mi SSE 4.6 mph - N/A   Clear
11:15 PM 78.1 °F - 75.7 °F 92% 30.04 in 10.0 mi SSE 4.6 mph - N/A   Clear
11:35 PM 77.5 °F - 75.7 °F 94% 30.04 in 10.0 mi SSE 3.5 mph - N/A   Clear
11:55 PM 77.2 °F - 75.6 °F 95% 30.05 in 10.0 mi SSE 3.5 mph - N/A   Clear